loading
|

SCOUT A DEB, 3213

Orbit data source: Space-Track

SCOUT A DEB, 3213 is space debris in LEO originally from a launch on Sat, 02 Mar 1968 UTC launched from the Air Force Western Test Range (AFWTR). Debris objects in space refer to the collection of defunct objects orbiting the Earth. Examples of debris include non-operational satellites, rocket bodies, and fragments generated from explosions, collisions, or faulty payload assembly.

Loading next visibility...
Loading greatness...
SCOUT A DEB details
Identifier
3213, 1968-012C
Orbit
LEO
Last TLE update1 day ago
Origin
Flag of USUSN NAVAIR (US)
ManufacturerUnknown
MissionSpacecraft
Bus & MotorUnknown bus, Unknown motor
MassUnknown
Launch date (UTC)
1968-03-02 (57 years ago)
Launch vehicleUnknown
Launch site
Air Force Western Test Range (AFWTR)
Object type
Payload
Rocket body
Debris
Shape & HBRUnknown
Radar Cross SectionSmall (<0.1 m²)

Expand to show TLE details & history

TLE from 1 day ago
0 SCOUT A DEB
1  3213U 68012C   24277.54969899  .00001990  00000-0  16299-2 0  9995
2  3213  90.2282  98.7668 0053091 106.1200 318.2252 13.88543681789156
Epoch: 2024-10-03T13:11Z
Definitive object data (Epoch: 2024-10-03T13:11:33.992Z)
Latitude64.02264°
Longitude-112.32385°
Altitude915.999 km
Speed7.414 km/s
True Right ascension06h 33m 12s
True Declination63° 53' 24"
Sunlit
Object was in daylight at TLE epoch
Predictive object data (real-time)
Latitude-35.0601°
Longitude-111.66372°
Altitude975.13 km
Speed7.349 km/s
Apparent Right ascension05h 59m 26s
Apparent Declination-37° 34' 31"
Sunlit
Object is in daylight
Predictive observer data (real-time)
Local Sidereal Time17:14:33
Azimuth281.413° WNW
Elevation-80.95°
Doppler factor1
Orbital elements
Apogee969.536 km
Perigee891.929 km
Semi-major axis7,308.87 km
Eccentricity0.0053091
Inclination90.2282°
RAAN98.7668°
Arg. of periapsis106.12°
True anomaly317.81788°
Mean anomaly318.2252°
Eccentric anomaly318.02174°
Mean motion3.4735 °/min
BSTAR0.0016299
Period103.64 mins
No data available

SCOUT A DEB Visibility forecast

Observer location: 39.9160978°, -105.1181434

SCOUT A DEB is not visible in the next 10 days
Span
Click to sort rows by Start time (UTC) header in descending order
Start Az.
Max El. time (UTC)
Max El. Az.
Max El.
End time (UTC)
End Az.